Location: Cardiff
(53.7833°N, 113.6000°W)
Time: 08:53:24
(UTC+00:00)

RS-15 - Pass Details

Date: 10 December 2023
Orbit: 1893 x 2151 km, 64.8° (Epoch: 21 February)

Event Time Altitude Azimuth Distance (km) Brightness Sun altitude
Rises 01:19:27 0° 161° (SSE) 5,652 10.4 -17.2°
Reaches altitude 10° 01:23:47 10° 149° (SSE) 4,637 9.8 -17.8°
Maximum altitude 01:32:45 25° 101° (E) 3,492 8.8 -19.1°
Enters shadow 01:34:27 25° 89° (E) 3,528 8.8 -19.4°
